星链-34023 (STARLINK-34023)

导读

STARLINK-34023是美国太空探索技术公司(SpaceX)于2025年5月10日发射的星链(Starlink)系列卫星。作为星链巨型低轨互联网星座的组成部分,它运行在近地轨道,主要为全球尤其是偏远地区提供高速宽带互联网服务,延续了星链项目构建全球覆盖网络的目标,由SpaceX自主研发运营,依托低轨星座架构提升通信覆盖能力与访问速率。

Basic Information
目录编号:
63875
目录名称:
STARLINK-34023
国际标识:
2025-094M
轨道中心:
EARTH
卫星名称:
星链-34023
卫星全名:
星链-34023 (STARLINK-34023)
卫星状态:
在轨 (已飞行482 天)
发射日期:
2025-05-10 UTC
国别 :
美国 (US)
星等 :
--
Orbit Information
数据来源 国际轨道数据
星历时间: 2026-09-04T23:43:46+0800
6小时前
查看轨道信息
半长轴: 6870.027km
偏心率: 0.0002438
轨道倾角: 70.000°
近地点辐角 248.234°
升交点赤经 142.700°
平近点角 111.858°
近地点: 490.215km
远地点: 493.565km
周期: 94.449分钟
每日圈数: 15.246325
Detailed Information
固有亮度:
5
最大亮度:
2.5
卫星平台:
Starlink V1.0
覆盖范围:
全球
运营商:
太空探索技术公司
运营商所在国:
美国
制造商(研发单位):
太空探索技术公司
制造商所在国:
美国
使用方式:
暂无
Satellite Introduction
Starlink 计划是 SpaceX 推出的全球卫星互联网项目,通过发射低轨道卫星,为全球尤其是偏远地区提供高速、低延迟的互联网服务。自 2019 年起,Starlink 已部署数千颗卫星,旨在缩小全球数字鸿沟,推动互联网普及。该项目还为军事、航空等行业提供通信支持,带来广泛经济效益。
2D Orbit Map
3D Orbit Map
Orbit Altitude Analysis Chart
Orbit Inclination Analysis Chart
Orbit Comprehensive Analysis Chart
View Comprehensive Chart
Conjunction Data List
Event ID Objects TCA Miss Dist (km) Collision Risk Probability Collision Risk Index (CRI) Action
CDM_260906-220005-935006-387521
2026-09-06T
22:00:26+0000
0.302 km
远距离
4.728563E-4 高风险 0.88
CDM_260906-233405-935006-387521
2026-09-06T
23:34:38+0000
0.844 km
远距离
4.321952E-5 中风险 0.68
CDM_260906-202605-935006-387521
2026-09-06T
20:26:13+0000
0.884 km
远距离
3.702983E-5 中风险 0.66
CDM_260907-014406-380506-387521
2026-09-07T
01:44:35+0000
0.973 km
远距离
2.181897E-5 中风险 0.62
CDM_260907-034105-947606-387521
2026-09-07T
03:41:43+0000
1.018 km
极远距离
1.349507E-5 中风险 0.58
CDM_260907-040506-380506-387521
2026-09-07T
04:05:53+0000
1.935 km
极远距离
2.35085E-6 低风险 0.42
CDM_260907-050405-935006-387521
2026-09-07T
05:04:19+0000
2.099 km
极远距离
2.30841E-6 低风险 0.42
CDM_260831-200206-387506-545321
2026-08-31T
20:02:37+0000
2.564 km
极远距离
1.165627E-6 低风险 0.36
CDM_260907-064405-862806-387521
2026-09-07T
06:44:06+0000
2.145 km
极远距离
1.08151E-6 低风险 0.36
CDM_260907-002306-385806-387521
2026-09-07T
00:23:02+0000
2.887 km
极远距离
6.418121E-7 极低风险 0.31